FW0984 Weather Reports


time (UTC)temp
C
wind
direction
speed
KPH
gust
KPH
rain 1hr
cm
rain 24hr
cm
rain mn
cm
humidity
%
barometer
mb
20260505041551 19 243 0.0 3.2 0.00 0.00 0.00 61 1007.7
20260505040041 19 254 0.0 3.2 0.00 0.00 0.00 60 1007.8
20260505034538 19 255 0.0 4.8 0.00 0.00 0.00 60 1007.8
20260505033037 19 250 0.0 3.2 0.00 0.00 0.00 61 1007.7
20260505031536 19 248 0.0 3.2 0.00 0.00 0.00 60 1007.7
20260505030046 19 246 0.0 1.6 0.00 0.00 0.00 60 1007.5
20260505024535 19 241 0.0 3.2 0.00 0.00 0.00 59 1007.3
20260505023034 20 248 0.0 0.0 0.00 0.00 0.00 58 1007.1
20260505021532 20 246 0.0 0.0 0.00 0.00 0.00 58 1007.0
20260505020039 20 240 0.0 0.0 0.00 0.00 0.00 57 1006.8
20260505014538 20 245 0.0 1.6 0.00 0.00 0.00 57 1006.8
20260505013037 20 259 0.0 4.8 0.00 0.00 0.00 56 1006.6
20260505011630 20 249 0.0 1.6 0.00 0.00 0.00 54 1006.5
20260505010027 21 241 0.0 1.6 0.00 0.00 0.00 53 1006.4
20260505004539 21 263 0.0 0.0 0.00 0.00 0.00 51 1006.4
20260505003048 22 214 0.0 3.2 0.00 0.00 0.00 50 1006.4
20260505001525 22 256 0.0 0.0 0.00 0.00 0.00 48 1006.5
20260505000030 22 259 0.0 4.8 0.00 0.00 0.00 47 1006.6
20260504234523 22 257 1.6 4.8 0.00 0.00 0.00 48 1006.8
20260504233023 22 258 3.2 6.4 0.00 0.00 0.00 47 1006.8
20260504231522 22 266 1.6 6.4 0.00 0.00 0.00 49 1006.7
20260504230021 22 249 3.2 8.0 0.00 0.00 0.00 52 1006.9
20260504224520 22 242 0.0 0.0 0.00 0.00 0.00 55 1007.2
20260504223020 22 250 0.0 0.0 0.00 0.00 0.00 56 1007.3
20260504221521 22 246 0.0 0.0 0.00 0.00 0.00 54 1007.2
20260504220016 23 252 0.0 0.0 0.00 0.00 0.00 56 1007.7
20260504214518 23 266 0.0 3.2 0.00 0.00 0.00 50 1007.8
20260504213022 23 319 0.0 3.2 0.00 0.00 0.00 52 1007.9
20260504211528 23 260 0.0 3.2 0.00 0.00 0.00 53 1008.1
20260504210010 23 261 0.0 1.6 0.00 0.00 0.00 52 1008.3
20260504204507 23 232 0.0 4.8 0.00 0.00 0.00 51 1008.4
20260504203006 23 259 1.6 6.4 0.00 0.00 0.00 49 1008.7
20260504201502 22 261 0.0 4.8 0.00 0.00 0.00 54 1008.8
20260504200058 22 261 0.0 4.8 0.00 0.00 0.00 56 1008.9
20260504194557 21 249 0.0 3.2 0.00 0.00 0.00 61 1009.3
20260504193100 20 249 0.0 3.2 0.00 0.00 0.00 62 1009.8
20260504191607 20 259 0.0 4.8 0.00 0.00 0.00 62 1010.1
20260504190104 20 261 0.0 4.8 0.00 0.00 0.00 60 1010.5
20260504184552 20 263 1.6 4.8 0.00 0.00 0.00 58 1010.4
20260504183046 20 260 1.6 8.0 0.00 0.00 0.00 57 1010.2
20260504181547 20 267 1.6 6.4 0.00 0.00 0.00 59 1009.8
20260504180042 20 275 0.0 8.0 0.00 0.00 0.00 58 1009.6
20260504174543 19 261 1.6 3.2 0.00 0.00 0.00 64 1009.5
20260504173036 19 252 0.0 3.2 0.00 0.00 0.00 64 1009.8
20260504171536 18 251 1.6 6.4 0.00 0.00 0.00 63 1009.5
20260504081556 10 261 0.0 3.2 0.00 0.00 0.00 63 1012.6
20260504044534 9 117 0.0 0.0 0.00 0.00 0.00 68 1014.6
20260504043032 10 172 0.0 0.0 0.00 0.00 0.00 65 1014.6